Weather History for Frederick, MD

Change the Weather History Date:

Tuesday, December 17, 2013

  Actual Average (KHGR) Record (KHGR)
Temperature  
Mean Temperature 30 °F -  
Max Temperature 33 °F 39 °F 61 °F (2006)
Min Temperature 28 °F 26 °F 14 °F (2010)
Degree Days  
Heating Degree Days 34    
Moisture  
Dew Point 29 °F    
Average Humidity 96    
Maximum Humidity 100    
Minimum Humidity 80    
Precipitation  
Precipitation 0.00 in - - ()
Sea Level Pressure  
Sea Level Pressure 30.07 in    
Wind  
Wind Speed 3 mph (North)    
Max Wind Speed 7 mph    
Max Gust Speed -    
Visibility 5 miles    
Events Snow    
Averages and records for this station are not official NWS values.
T = Trace of Precipitation, MM = Missing Value Source: NWS Daily Summary

Daily Weather History Graph

Daily Weather History Graph

Search for Another Location

Airport:

Trip Planner

Search our weather history database for the weather conditions in past years. The results will help you decide how hot, cold, wet, or windy it might be!

Date:

Astronomy

Dec. 17, 2013 Rise Set
Actual Time 7:23 AM EST 4:47 PM EST
Civil Twilight 6:53 AM EST 5:17 PM EST
Nautical Twilight 6:19 AM EST 5:51 PM EST
Astronomical Twilight 5:47 AM EST 6:24 PM EST
Moon 5:25 PM EST (12/17) 7:18 AM EST (12/17)
Length of Visible Light 10h 24m
Length of Day
9h 23m
Full, 100% of the Moon is Illuminated
Dec 17
Full
Dec 25
Last Quarter
Jan 1
New
Jan 7
First Quarter
Jan 15
Full

Hourly Weather History & Observations

Time (EST) Temp. Windchill Dew Point Humidity Pressure Visibility Wind Dir Wind Speed Gust Speed Precip Events Conditions
12:00 AM 32.0 °F 27.5 °F 26.6 °F 80% 30.19 in 10.0 mi NNE 4.6 mph - N/A   Overcast
1:00 AM 32.0 °F 28.7 °F 28.4 °F 87% 30.17 in 10.0 mi North 3.5 mph - N/A   Overcast
1:20 AM 32.0 °F 27.5 °F 28.4 °F 87% 30.16 in 7.0 mi North 4.6 mph - N/A   Overcast
1:40 AM 32.0 °F 27.5 °F 28.4 °F 87% 30.17 in 5.0 mi North 4.6 mph - N/A Snow Light Snow
2:00 AM 30.2 °F - 28.4 °F 93% 30.16 in 3.0 mi Calm Calm - N/A Snow Light Snow
2:20 AM 30.2 °F 26.7 °F 28.4 °F 93% 30.16 in 4.0 mi North 3.5 mph - N/A Snow Light Snow
2:40 AM 30.2 °F 26.7 °F 28.4 °F 93% 30.15 in 4.0 mi North 3.5 mph - N/A Snow Light Snow
3:00 AM 30.2 °F 26.7 °F 30.2 °F 100% 30.15 in 1.5 mi NNW 3.5 mph - N/A Snow Light Snow
3:20 AM 30.2 °F 26.7 °F 30.2 °F 100% 30.15 in 4.0 mi North 3.5 mph - N/A Snow Light Snow
3:40 AM 30.2 °F 26.7 °F 30.2 °F 100% 30.15 in 5.0 mi North 3.5 mph - N/A Snow Light Snow
4:00 AM 30.2 °F 25.4 °F 30.2 °F 100% 30.14 in 5.0 mi NNE 4.6 mph - N/A   Overcast
4:20 AM 30.2 °F 25.4 °F 30.2 °F 100% 30.15 in 5.0 mi North 4.6 mph - N/A   Overcast
4:40 AM 30.2 °F 25.4 °F 30.2 °F 100% 30.14 in 5.0 mi NE 4.6 mph - N/A   Overcast
5:00 AM 30.2 °F - 30.2 °F 100% 30.12 in 5.0 mi Calm Calm - N/A   Overcast
5:20 AM 30.2 °F 26.7 °F 30.2 °F 100% 30.12 in 5.0 mi North 3.5 mph - N/A   Overcast
5:40 AM 30.2 °F 26.7 °F 30.2 °F 100% 30.12 in 5.0 mi NNW 3.5 mph - N/A   Overcast
6:50 AM 30.2 °F 26.7 °F 30.2 °F 100% 30.11 in 5.0 mi Variable 3.5 mph - N/A   Overcast
7:50 AM 30.2 °F 25.4 °F 30.2 °F 100% 30.10 in 5.0 mi Variable 4.6 mph - N/A   Overcast
8:50 AM 30.2 °F 26.7 °F 30.2 °F 100% 30.08 in 4.0 mi Variable 3.5 mph - N/A   Overcast
9:50 AM 32.0 °F - 30.2 °F 93% 30.09 in 4.0 mi Calm Calm - N/A   Overcast
10:50 AM 33.8 °F - 30.2 °F 87% 30.05 in 4.0 mi Calm Calm - N/A   Overcast
11:50 AM 33.8 °F - 30.2 °F 87% 30.03 in 4.0 mi Calm Calm - N/A   Overcast
12:50 PM 33.8 °F 29.6 °F 30.2 °F 87% 29.99 in 4.0 mi NNE 4.6 mph - N/A   Overcast
2:50 PM 33.8 °F - 30.2 °F 87% 29.99 in 4.0 mi North - - N/A   Mostly Cloudy
3:47 PM 33.8 °F 30.8 °F 32.0 °F 93% 29.97 in 4.0 mi Variable 3.5 mph - N/A   Clear
4:45 PM 32.0 °F 28.7 °F 30.2 °F 93% 29.99 in 4.0 mi Variable 3.5 mph - N/A   Clear
5:45 PM 30.2 °F 25.4 °F 30.2 °F 100% 29.98 in 4.0 mi Variable 4.6 mph - N/A   Clear
7:55 PM 28.4 °F - 28.4 °F 100% 30.00 in 4.0 mi Calm Calm - N/A   Clear
8:00 PM 30.2 °F 25.4 °F 28.4 °F 93% 29.99 in 5.0 mi North 4.6 mph - N/A   Clear
8:20 PM 28.4 °F - 28.4 °F 100% 29.99 in 5.0 mi Calm Calm - N/A   Clear
8:40 PM 28.4 °F - 28.4 °F 100% 30.00 in 5.0 mi Calm Calm - N/A   Mostly Cloudy
9:00 PM 28.4 °F 23.3 °F 28.4 °F 100% 29.99 in 5.0 mi NNE 4.6 mph - N/A   Overcast
9:20 PM 28.4 °F 21.2 °F 28.4 °F 100% 29.99 in 5.0 mi North 6.9 mph - N/A   Mostly Cloudy
9:40 PM 28.4 °F 21.2 °F 28.4 °F 100% 29.99 in 5.0 mi North 6.9 mph - N/A   Clear
10:00 PM 28.4 °F 24.6 °F 28.4 °F 100% 30.00 in 5.0 mi North 3.5 mph - N/A   Scattered Clouds
10:20 PM 28.4 °F - 28.4 °F 100% 30.01 in 5.0 mi Calm Calm - N/A   Overcast
10:40 PM 28.4 °F - 28.4 °F 100% 30.02 in 5.0 mi Calm Calm - N/A   Overcast
11:00 PM 28.4 °F 24.6 °F 28.4 °F 100% 30.03 in 5.0 mi ENE 3.5 mph - N/A   Overcast
11:20 PM 28.4 °F - 28.4 °F 100% 30.02 in 5.0 mi Calm Calm - N/A   Overcast
11:40 PM 28.4 °F - 28.4 °F 100% 30.03 in 5.0 mi Calm Calm - N/A   Overcast